Regional Weather Roundup
Issued by NWS

Home | Current Version | Previous Version | Graphics & Text | Print | Product List | Glossary On
Versions: 1 2 3 4 5 6 7 8 9 10 11 12 13 14 15 16 17 18 19 20 21 22 23 24 25 26 27 28 29 30 31 32 33 34 35 36 37 38 39 40 41 42 43 44 45 46 47 48 49 50
000
ASUS45 KBOU 200007
RWRCO

WEATHER ROUNDUP FOR COLORADO
NATIONAL WEATHER SERVICE DENVER/BOULDER CO
600 PM MDT TUE AUG 19 2014

NOTE: "FAIR" INDICATES FEW OR NO CLOUDS BELOW 12000 FEET WITH NO
SIGNIFICANT WEATHER AND/OR OBSTRUCTIONS TO VISIBILITY.

COZ001>005-013-030-031-200100-
...NORTHWEST COLORADO...

CITY           SKY/WX    TMP DP  RH WIND       PRES   REMARKS
CRAIG          NOT AVBL
HAYDEN         MOSUNNY   66  46  48 CALM      30.04F
MEEKER         CLOUDY    68  53  58 SW3       30.02F
MOUNT WERNER   NOT AVBL
STEAMBOAT SPGS MOSUNNY   70  50  49 W3        30.05F
WALDEN         PTSUNNY   70  39  32 W8        30.11F
$$

COZ006>008-011-200100-
...WEST CENTRAL VALLEYS...

CITY           SKY/WX    TMP DP  RH WIND       PRES   REMARKS
GRAND JUNCTION CLOUDY    73  51  46 NW14      29.90F
MONTROSE       CLOUDY    68  56  65 N3        29.99R
EAGLE          NOT AVBL
RIFLE          CLOUDY    79  49  34 NW9       29.91S
DELTA          NOT AVBL
NUCLA          CLOUDY    70  50  49 SW22G32   30.04R
$$

COZ017>023-064>068-200100-
...SOUTHWEST COLORADO...

CITY           SKY/WX    TMP DP  RH WIND       PRES   REMARKS
DURANGO        CLOUDY    74  44  34 W15       30.05R
CORTEZ         LGT RAIN  62  60  93 W13       30.05F
PAGOSA SPRINGS CLOUDY    69  44  39 W16G26    30.14R
TELLURIDE      CLOUDY    63  45  51 W5        30.20R
WOLF CREEK PAS NOT AVBL
$$

COZ009-010-012-014-032>034-037-058>063-200100-
...CENTRAL COLORADO...

CITY           SKY/WX    TMP DP  RH WIND       PRES   REMARKS
ASPEN          CLOUDY    63  50  62 S7        30.09F
BUENA VISTA    PTSUNNY   65  42  42 CALM      30.14F
COPPER MTN     CLOUDY    54  37  54 S10G21    30.43F
BERTHOUD PASS  CLOUDY    41  39  93 MISG      30.49R
COTTONWOOD PAS PTSUNNY   61  43  51 SE5       30.28F
GUNNISON       PTSUNNY   66  45  45 N5        30.11F
KREMMLING      CLOUDY    70  43  37 S15G24    30.09R
LEADVILLE      CLOUDY    57  41  55 N6        30.26F
MONARCH PASS   PTSUNNY   50  41  71 E3G9      30.52F
SALIDA         CLOUDY    66  53  64 SW7       30.19S
SUNLIGHT       CLOUDY    57  45  62 CALM      30.32F
WILKERSON PASS CLOUDY    54  36  50 SW9       30.40F
$$

COZ069>075-200100-
...SAN LUIS VALLEY/SANGRE DE CRISTO MOUNTAINS...

CITY           SKY/WX    TMP DP  RH WIND       PRES   REMARKS
ALAMOSA        CLOUDY    73  40  30 S9        30.07F
LA VETA PASS   CLOUDY    59  39  47 S9        30.29S
SAGUACHE       PTSUNNY   72  45  37 S5        30.11F
$$

COZ035-036-038>040-200100-
...NORTHERN COLORADO FRONT RANGE...

CITY           SKY/WX    TMP DP  RH WIND       PRES   REMARKS
DENVER INTL AP LGT RAIN  68  54  60 SE17G26   29.95S
DMNS CITY PARK   N/A     75  50  42 SE3G14    29.91F
AURORA         PTSUNNY   66  57  73 E10       29.96F
FRONT RANGE AP NOT AVBL
ERIE MUNI ARPT PTSUNNY   78  46  31 S13G22    29.91S
BOULDER MUN AP PTSUNNY   75  46  35 SW6       29.91S
CENTENNIAL     CLOUDY    70  54  56 CALM      29.97F
BROOMFIELD     PTSUNNY   77  48  36 S17       29.95F
FORT COLLINS   PTSUNNY   81  46  30 N8        29.87F
LONGMONT       PTSUNNY   78  49  36 S8        29.91R
$$

COZ041-046-047-076>085-087-088-200100-
...PIKES PEAK/PALMER DIVIDE AND SOUTHERN FOOTHILLS...

CITY           SKY/WX    TMP DP  RH WIND       PRES   REMARKS
COLO. SPRINGS  CLOUDY    74  48  39 NW9       29.99F
A. F. ACADEMY  PTSUNNY   72  46  40 N8        30.01F
ELLICOTT       CLOUDY    78  47  33 NW7       29.97S
FALCON         CLOUDY    73  46  38 NW5       30.05F
FORT CARSON    CLOUDY    74  51  44 NW6       29.97S
LIMON          CLOUDY    80  42  25 NW18G24   29.90R
MONUMENT HILL  CLOUDY    68  46  45 NW5       30.07F
TRINIDAD       LGT RAIN  74  48  39 W9G22     29.97F
$$

COZ042>045-048>051-090-091-200100-
...NORTHEAST COLORADO...

CITY           SKY/WX    TMP DP  RH WIND       PRES   REMARKS
GREELEY ARPT   PTSUNNY   81  48  32 N15       29.85F
AKRON          PTSUNNY   85  49  28 S18G24    29.84R THUNDER
BURLINGTON     MOSUNNY   93  44  18 S12       29.79F
WRAY             N/A     93  54  26 E17G23    29.76F
STERLING       PTSUNNY   91  55  29 SE7       29.76F
HOLYOKE        NOT AVBL
FORT MORGAN    CLOUDY    75  50  41 S24G36    29.89R
$$

COZ086-089-092>099-200100-
...SOUTHEAST COLORADO...

CITY           SKY/WX    TMP DP  RH WIND       PRES   REMARKS
PUEBLO         PTSUNNY   85  45  24 SW8       29.84F
LA JUNTA       CLOUDY    89  48  24 S16G25    29.83S
LAMAR          LGT RAIN  82  50  32 W33G43    29.82R
SPRINGFIELD      N/A     92  42  17 S16G26    29.85S
$$



USA.gov is the U.S. government's official web portal to all federal, state and local government web resources and services.